Regional Weather Roundup
Issued by NWS

Home | Current Version | Previous Version | Graphics & Text | Print | Product List | Glossary On
Versions: 1 2 3 4 5 6 7 8 9 10 11 12 13 14 15 16 17 18 19 20 21 22 23 24 25 26 27
000
ASUS45 KSLC 251310
RWRUT

UTAH REGIONAL WEATHER ROUNDUP
NATIONAL WEATHER SERVICE SALT LAKE CITY UT
700 AM MDT WED MAY 25 2016

UTZ001>011-023>025-251400-

NORTHERN UTAH

CITY           SKY/WX    TMP DP  RH WIND       PRES   REMARKS
BRIGHAM CITY     N/A     46  42  83 CALM      30.00S
HILL AFB       MOCLDY    47  38  72 E5        30.00R
LOGAN          CLOUDY    45  44  97 E3        30.01R
OGDEN          PTCLDY    47  40  76 S7        29.99R
PROVO AIRPORT  PTCLDY    45  34  65 SE10      30.02R
SALT LAKE CITY MOCLDY    54  41  61 SE9       29.99R
VERNAL         MOSUNNY   45  35  68 CALM      30.03R
WENDOVER       CLOUDY    48  36  61 N3        30.01R
HEBER CITY     PTCLDY    37  36  93 CALM      30.03R
WEST JORDAN    MOCLDY    48  39  71 S3        30.01R

$$

UTZ012>022-026-027-251400-

SOUTHERN/CENTRAL UTAH

CITY           SKY/WX    TMP DP  RH WIND       PRES   REMARKS
BLANDING       PTCLDY    42  26  53 CALM      30.16R
BRYCE CANYON   CLEAR     29  22  75 CALM      30.13R
CEDAR CITY     CLEAR     41  27  57 CALM      30.04R
DELTA          PTCLDY    43  32  65 SW6       30.02R
HANKSVILLE     CLEAR     43  25  49 NW3       30.04R
MILFORD        PTCLDY    38  27  64 E5        30.02R WCI  34
MOAB/CYNLANDS  SUNNY     53  28  38 SW3       30.01R
PRICE          CLEAR     43  27  53 N5        30.04R
ST GEORGE      MOSUNNY   55  25  30 E10       29.99R

$$

REGIONAL REPORTS     COLORADO/ARIZONA

CITY           SKY/WX    TMP DP  RH WIND       PRES   REMARKS
CRAIG, CO      SUNNY     44  37  76 VRB3      30.06R
GRAND JUNCTION MOSUNNY   48  29  47 E6        30.03R
RIFLE          SUNNY     47  34  60 CALM      30.06R
MONTROSE       MOSUNNY   47  26  44 SE6       30.10R
CORTEZ         SUNNY     42  25  50 NE8       30.12R
PAGE, AZ       CLEAR     57  20  23 CALM      30.03R
GRAND CANYON   CLEAR     29  15  56 E5        30.13R WCI  24
KINGMAN        CLEAR     44  16  32 SW3       29.98R
FLAGSTAFF      CLEAR     33  21  61 CALM      30.12R

$$

REGIONAL REPORTS    NEVADA/IDAHO/WYOMING

CITY           SKY/WX    TMP DP  RH WIND       PRES   REMARKS
LAS VEGAS, NV  PTCLDY    62  37  39 S6        29.89R
ELY            MOCLDY    33  30  88 S10       30.06R WCI  25
ELKO           CLOUDY    45  41  86 CALM      30.04R
POCATELLO, ID  CLOUDY    46  43  89 CALM      29.99R
BURLEY         CLOUDY    51  40  65 SW10      29.97R
EVANSTON, WY   CLOUDY    38  33  82 S5        30.05R WCI  34
ROCK SPRINGS   CLOUDY    40  35  83 SW6       30.04R
KEMMERER         N/A     34  34 100 CALM      30.05R FOG

$$




USA.gov is the U.S. government's official web portal to all federal, state and local government web resources and services.